Wind_Speed
2 1 4 5 9 10 9 9 11 13 11 7 5 4 5 5 6 8 7 7 6 4 4 5 6 8 10 11 10 11 8 9 14 13 11 10 10 10 11 11 10 11 9 12 18 21 23 24 23 20 16 14 11 7 1 5 6 4 4 7 10 11 8 3 4 6 10 14 15 15 18 20 20 21 23 25 27 29 30 30 30 31 31 30 30 30
2 2 8 10 14 14 10 10 11 11 7 1 3 5 6 5 6 8 6 7 7 4 6 5 6 9 10 11 11 12 6 8 14 15 13 12 12 10 12 13 12 11 9 12 16 18 23 24 25 23 18 16 13 9 4 2 3 5 9 13 16 16 11 7 6 5 7 9 9 10 12 16 19 20 22 24 27 29 30 30 30 32 32 31 31 31
3 5 12 15 13 9 9 9 5 1 3 5 5 5 5 4 5 8 7 9 7 2 6 6 6 8 10 8 11 11 6 9 12 15 14 13 13 11 12 13 12 12 11 12 14 17 23 26 27 27 23 18 13 10 9 8 5 1 6 9 14 18 15 11 10 10 7 11 10 9 13 15 17 19 20 22 24 26 28 30 31 32 33 32 32 32
3 6 12 13 11 8 6 3 5 6 6 4 3 4 2 4 4 5 7 10 8 1 3 5 7 6 7 7 11 12 12 12 12 14 13 12 14 13 13 13 13 14 13 14 13 14 19 23 26 27 26 24 19 15 13 12 9 7 7 8 10 15 16 14 15 13 12 8 7 7 12 17 18 18 18 17 19 21 24 27 29 31 32 33 33 33
5 9 8 6 6 4 1 6 7 6 5 3 1 3 3 5 4 5 6 8 8 4 1 5 8 6 5 9 9 9 12 13 12 13 14 13 14 15 15 15 14 14 13 13 14 13 15 19 23 26 29 30 29 25 19 16 15 14 13 11 11 13 15 16 17 17 15 13 8 5 8 13 15 16 16 14 16 19 21 23 25 27 30 33 34 33
6 7 5 7 5 4 6 5 4 5 3 5 2 2 4 5 6 8 7 6 6 6 3 7 5 6 5 9 7 5 8 11 10 12 14 13 13 14 14 14 13 13 12 12 13 12 14 18 23 27 29 30 30 28 25 23 21 21 19 16 14 14 15 16 18 19 18 16 13 9 7 7 9 12 13 14 15 17 18 18 22 25 27 31 34 34
5 6 7 5 3 6 6 3 0 4 5 2 4 4 4 5 6 9 8 5 2 4 4 6 4 5 6 8 5 4 8 10 9 11 12 12 12 13 12 11 12 12 12 12 13 13 15 19 23 25 27 29 28 27 28 27 26 25 24 22 20 18 17 17 18 19 19 18 16 14 10 7 8 11 14 15 16 16 15 17 22 26 27 29 31 33
5 9 10 7 5 5 4 2 2 3 7 1 6 4 6 7 7 8 7 3 2 3 4 4 4 3 3 5 5 4 8 12 11 12 12 12 12 12 12 13 14 13 12 12 14 14 16 19 23 25 27 28 27 28 29 28 27 26 25 25 25 25 24 21 19 19 18 18 18 16 14 13 12 13 17 19 19 18 18 21 25 25 27 28 29 31
4 7 9 8 5 3 1 2 4 2 5 3 6 5 6 6 6 6 5 5 1 3 5 6 2 3 1 3 5 5 9 12 11 12 12 11 12 13 13 13 13 13 13 13 13 13 15 19 24 27 29 30 29 27 27 26 26 26 25 25 25 26 25 23 22 20 20 19 18 17 17 18 18 18 21 23 21 19 20 25 29 27 27 28 30 32
3 6 8 4 3 2 2 3 1 5 3 4 5 7 7 6 5 4 3 3 3 6 1 8 3 4 1 3 5 4 7 9 8 10 10 11 13 12 12 12 11 11 11 12 13 13 16 21 24 27 29 30 29 26 25 25 25 25 24 23 24 24 23 22 22 21 21 20 19 20 19 20 22 22 23 21 20 18 18 24 29 30 29 28 30 33
6 5 3 2 2 3 3 2 5 6 2 1 6 8 7 6 5 3 2 2 4 2 4 7 4 4 2 3 3 2 3 6 7 8 8 10 11 11 10 10 10 10 9 10 10 11 16 19 22 24 25 26 26 26 26 25 25 24 23 21 21 22 22 22 21 20 19 18 18 20 21 22 23 23 23 20 18 18 18 22 27 30 31 31 31 32
8 6 4 1 1 4 3 4 6 5 5 6 5 5 5 5 5 5 5 4 3 2 6 6 5 6 3 1 2 4 6 6 7 8 8 9 9 8 8 8 8 8 8 8 8 8 10 13 16 19 20 21 23 23 23 23 24 24 24 23 22 22 22 23 22 20 19 17 16 17 18 20 22 23 24 23 22 21 20 22 26 28 31 33 32 32
5 3 5 5 4 8 7 4 7 7 7 7 4 5 5 3 5 4 4 3 0 4 5 5 6 3 2 2 5 5 6 6 6 7 8 8 8 7 7 7 6 6 7 7 7 7 7 8 10 14 16 18 19 20 20 21 23 24 25 26 25 23 23 23 23 23 22 20 18 17 17 18 19 21 23 23 24 25 23 23 26 27 29 31 32 32
4 4 7 7 6 7 7 4 5 5 5 5 2 4 3 1 3 2 4 2 2 5 5 5 4 0 1 2 4 5 5 5 5 6 7 7 7 6 6 6 6 6 7 6 6 6 6 6 9 12 13 16 17 17 18 20 22 24 24 25 25 25 26 26 25 25 25 25 24 22 19 18 19 20 22 23 24 25 25 25 26 29 31 32 34 35
1 4 4 4 3 5 6 4 3 4 4 3 3 6 3 3 3 2 3 2 3 5 6 7 4 2 4 2 3 5 5 4 4 5 5 6 6 5 5 5 6 6 5 5 5 5 5 6 9 10 12 14 15 16 17 17 19 21 21 22 23 25 28 29 28 26 25 27 28 26 23 22 21 21 21 23 24 24 25 25 26 30 32 34 35 36
1 5 5 2 2 1 5 5 2 4 5 3 1 4 1 4 5 2 3 5 4 2 4 4 2 1 2 4 4 4 4 4 4 4 5 5 4 4 5 5 5 5 4 4 4 4 4 5 8 9 11 13 15 17 17 17 18 19 20 21 20 21 25 28 31 30 26 26 28 28 26 25 25 24 23 23 23 23 24 25 26 28 31 34 36 36
1 5 6 6 4 4 6 8 3 1 2 2 3 2 4 4 6 2 3 2 2 1 3 2 1 2 2 2 3 4 3 3 3 3 5 4 4 5 5 5 4 4 4 4 4 3 3 5 8 10 11 13 15 16 17 17 18 19 20 20 19 19 21 25 31 33 29 27 28 29 29 28 27 26 26 26 25 24 24 24 25 27 29 32 34 36
1 4 6 4 5 4 5 8 6 1 2 2 3 5 4 1 3 3 0 3 3 1 4 3 2 5 4 3 4 4 3 3 2 3 3 3 4 5 4 3 4 4 4 4 4 4 4 5 8 9 10 12 13 14 14 14 15 16 17 17 17 18 19 21 27 31 32 31 28 28 31 32 30 27 26 27 27 26 25 25 26 26 28 30 33 35
2 3 7 3 3 7 6 5 6 4 2 3 2 4 1 2 2 2 1 0 1 1 3 5 4 4 5 4 5 6 5 5 3 2 2 1 2 4 3 3 4 4 4 4 4 4 4 3 5 6 9 10 10 10 11 13 14 15 14 14 15 17 18 21 24 28 32 33 31 29 30 32 32 30 28 27 28 28 27 27 27 28 29 31 31 34
2 1 6 4 2 5 6 5 3 6 5 3 3 4 2 2 3 1 1 3 2 2 3 4 5 3 4 4 7 7 7 7 6 4 4 3 3 3 3 1 2 3 3 3 3 4 4 3 1 4 7 7 7 8 10 11 13 13 12 12 14 15 18 21 23 26 30 33 33 33 33 34 34 34 31 29 28 29 28 28 28 29 31 32 32 32
2 2 5 5 5 4 4 1 2 4 4 3 4 5 5 2 0 0 1 2 3 2 3 2 3 5 4 3 6 7 6 7 6 5 5 5 4 4 4 5 5 5 4 4 5 5 6 5 2 3 5 4 5 5 6 6 7 8 9 10 11 13 16 18 19 22 26 30 33 34 35 35 36 35 34 32 31 30 29 29 29 30 32 33 33 31
1 2 3 4 4 3 4 7 6 5 5 4 3 3 4 4 2 2 3 3 1 2 3 3 3 6 5 2 5 6 6 6 5 5 5 5 5 5 6 6 6 5 4 5 6 5 6 6 4 4 6 6 5 4 3 2 3 5 6 8 8 10 13 15 17 19 22 26 31 34 35 35 35 35 36 35 33 32 31 30 30 31 32 33 32 30
2 3 0 4 4 4 9 11 9 7 6 4 2 2 1 3 4 3 2 4 2 2 2 1 2 6 4 3 6 6 6 5 4 5 5 5 5 6 6 6 6 5 5 6 6 5 7 9 8 6 10 9 7 6 5 4 3 4 5 6 7 8 11 14 17 19 19 22 27 32 35 36 34 35 36 36 34 34 33 32 31 32 32 33 33 30
1 2 1 4 4 4 8 9 5 3 1 2 1 1 2 3 2 2 4 3 1 3 3 1 3 6 4 2 5 4 3 3 2 4 5 4 5 5 6 6 6 6 6 6 6 5 7 10 10 9 11 10 9 8 6 4 2 2 4 5 5 7 10 14 17 19 19 21 25 30 34 36 36 35 36 36 35 35 35 34 33 33 32 34 34 31
1 0 1 3 5 6 6 6 6 5 4 2 2 2 2 3 2 1 0 1 1 5 5 3 4 5 4 1 3 1 1 2 3 3 5 3 5 5 6 6 6 6 6 6 6 6 7 8 8 6 5 6 6 7 8 6 4 1 4 6 7 9 12 14 17 19 18 20 24 28 32 35 36 35 36 36 36 35 35 35 34 33 33 34 35 33
1 2 2 1 2 3 4 4 3 3 3 2 3 3 3 3 3 3 2 1 3 5 4 5 5 5 5 2 2 2 2 2 4 4 3 4 5 6 6 5 5 6 6 6 6 6 6 6 7 9 11 11 6 3 7 8 6 4 4 6 9 11 13 15 16 18 18 19 22 26 30 33 34 34 36 37 37 36 35 34 34 34 34 35 36 33
2 1 3 5 6 6 6 7 5 2 3 5 7 9 8 4 1 1 0 2 4 4 4 6 7 8 10 7 5 4 4 3 5 6 6 5 6 6 6 5 5 5 4 5 6 6 7 7 7 9 12 14 11 5 4 6 6 6 6 7 8 11 13 14 16 18 18 19 20 23 28 31 33 34 35 36 36 36 35 34 34 35 35 36 36 34
4 1 4 7 9 9 9 10 6 3 4 6 6 9 11 10 5 2 5 6 3 2 9 7 10 10 10 7 4 4 4 4 5 6 6 6 6 6 5 6 6 6 6 6 7 7 7 7 6 7 11 13 10 8 9 11 12 11 11 10 10 11 13 14 16 19 20 19 20 22 26 30 32 33 34 35 36 35 35 34 34 35 36 36 37 36
4 3 5 6 8 9 9 9 7 5 5 5 6 9 11 11 10 9 12 11 5 5 12 10 7 9 7 4 4 5 5 5 6 6 6 5 6 6 6 6 6 6 7 7 6 6 6 6 4 5 8 8 8 10 14 17 19 19 17 14 12 12 14 15 17 20 21 20 20 21 25 29 31 32 33 34 35 35 34 33 34 36 35 35 37 37
3 3 5 5 6 7 8 9 7 6 6 6 8 11 12 13 12 12 14 13 9 11 14 13 13 10 6 5 4 5 5 5 5 5 5 6 7 6 6 5 5 6 7 6 6 6 6 5 5 6 8 9 10 14 17 20 23 24 23 19 16 15 16 17 18 21 22 21 21 22 25 28 31 32 33 33 33 34 34 34 34 35 34 34 38 37
1 4 4 3 3 5 6 7 8 7 8 9 9 10 12 13 13 12 12 10 9 11 11 9 9 9 4 4 4 5 5 4 4 5 5 7 7 6 6 6 7 7 6 6 7 7 7 7 7 7 9 12 14 16 18 21 25 26 25 22 20 20 20 19 20 21 23 23 21 22 24 27 30 31 32 32 32 34 35 35 34 34 32 33 36 34
3 3 1 2 3 5 5 6 8 6 7 9 11 13 14 13 10 10 8 7 7 7 5 4 4 5 5 4 3 4 3 4 5 5 6 7 8 7 7 7 7 6 6 6 7 7 7 8 8 8 11 16 18 18 19 21 24 26 25 23 23 24 22 21 21 23 25 23 21 21 24 27 29 31 32 32 33 35 36 35 34 32 31 31 33 30
4 2 1 2 3 4 3 3 3 4 6 9 10 11 13 12 11 9 6 5 5 5 4 4 5 5 4 4 4 5 5 6 5 4 5 7 8 7 7 6 7 6 6 7 8 8 8 8 9 11 14 17 18 18 19 20 21 23 25 26 27 27 24 23 23 24 25 23 21 21 23 26 28 30 32 32 34 35 36 35 33 31 30 31 33 31
4 4 3 3 2 3 1 3 4 4 8 9 6 6 8 9 8 8 6 5 4 2 2 4 4 4 3 3 4 5 6 5 4 4 4 6 7 7 7 6 6 7 7 8 9 9 9 10 12 15 16 17 18 19 20 21 23 25 27 28 30 30 27 25 24 25 24 22 21 21 24 27 28 29 32 33 34 35 35 34 32 30 31 32 32 30
4 5 4 2 2 4 1 4 4 7 9 6 3 1 4 4 5 5 4 4 4 2 2 3 3 4 4 4 4 6 7 6 5 5 6 7 6 5 6 6 7 8 9 9 10 10 11 12 13 15 18 21 23 23 24 27 28 29 30 30 30 31 30 27 25 25 23 22 21 22 25 26 27 29 31 33 34 34 35 33 29 29 31 32 33 32
7 5 3 2 2 3 1 2 4 7 6 7 7 2 2 3 4 1 4 5 3 3 2 4 6 5 5 5 5 6 7 7 5 4 6 6 3 2 5 6 8 9 9 10 11 12 14 15 15 18 21 25 28 28 28 30 31 31 32 31 29 30 30 27 25 24 23 22 22 24 26 25 26 29 31 32 33 33 33 31 27 28 32 33 35 36
8 5 3 4 3 3 4 5 4 6 9 8 7 3 3 2 3 3 2 5 4 1 1 1 5 6 5 5 6 6 7 8 6 4 5 4 2 4 7 8 10 11 12 15 18 19 19 20 21 23 26 28 30 30 29 32 32 31 31 30 28 28 27 25 23 23 23 22 23 25 25 25 26 28 30 31 32 32 33 30 28 29 33 34 36 35
9 7 6 5 4 3 4 5 4 6 7 5 4 3 1 4 6 6 2 4 5 3 2 3 4 6 5 5 7 6 6 7 9 6 4 4 5 8 9 10 12 14 16 19 21 23 23 24 25 27 28 28 29 30 30 32 33 30 28 28 27 25 23 22 22 23 23 23 23 25 25 25 26 27 29 30 30 32 33 29 28 30 32 34 34 33
9 6 5 5 4 3 4 6 6 5 6 5 3 2 2 5 6 5 3 5 5 4 4 2 3 5 5 5 6 5 5 7 10 7 4 6 9 9 10 11 13 16 19 21 22 23 25 27 27 28 27 25 26 29 32 33 32 29 26 26 25 22 20 21 23 25 25 23 24 24 24 26 26 26 28 29 31 33 31 28 28 30 32 34 34 34
5 3 4 6 6 4 4 5 5 3 5 6 4 3 4 3 5 5 3 6 4 5 5 4 4 5 5 4 5 4 4 5 9 9 10 11 12 11 11 12 14 17 20 23 24 25 26 27 26 26 25 24 26 30 32 32 29 26 25 25 23 21 21 24 26 26 24 22 21 22 23 24 25 26 29 30 32 33 29 26 27 28 31 34 32 34
2 2 3 7 8 6 6 6 5 3 4 4 3 4 2 2 4 0 5 5 2 3 3 3 3 4 4 4 4 3 3 5 8 11 13 13 13 14 15 17 20 21 23 26 28 27 26 25 24 24 24 25 27 30 31 29 25 23 23 23 21 22 24 27 27 24 21 19 19 21 22 23 25 28 31 31 31 31 27 23 25 28 30 31 30 33
2 1 2 5 5 4 5 5 6 5 2 2 3 3 2 2 1 4 5 3 1 2 3 4 4 4 4 5 4 4 6 7 8 10 12 13 14 14 15 18 20 22 24 27 28 27 25 24 25 25 24 25 27 28 29 28 23 21 20 20 21 24 27 27 24 20 17 17 18 20 21 24 27 30 32 31 28 26 23 22 25 27 25 22 22 24
3 2 1 3 3 2 3 5 6 5 2 3 2 0 2 2 4 4 2 2 3 3 4 4 4 4 5 5 5 6 8 9 9 10 11 12 13 13 14 16 17 19 23 26 26 25 24 23 24 24 23 25 26 26 26 25 22 19 18 19 22 25 24 22 19 15 14 16 17 19 22 26 30 31 31 29 25 21 19 21 23 22 17 14 12 10
3 3 2 3 2 3 4 5 4 3 1 3 3 2 1 2 3 3 1 3 3 3 3 4 4 5 5 6 7 8 8 8 9 10 11 11 11 12 13 15 17 20 23 25 26 26 25 22 22 22 23 24 26 26 25 22 19 17 18 21 23 23 21 19 16 13 13 15 16 19 24 28 30 30 29 25 19 15 14 18 21 20 18 15 10 1
2 2 3 3 3 3 4 4 3 2 1 3 3 3 3 2 2 3 4 2 3 3 3 3 4 5 5 6 7 8 8 9 10 10 10 11 12 12 13 15 17 20 23 25 26 27 25 23 23 22 22 24 25 24 22 20 17 16 18 22 23 21 19 17 13 11 13 14 15 20 27 29 30 31 29 20 13 10 12 16 21 20 17 13 13 9
0 1 2 2 2 2 3 3 2 0 2 3 3 3 3 3 2 3 3 0 3 3 3 3 4 4 4 5 7 7 8 10 11 10 10 11 12 13 13 15 18 21 23 24 25 27 26 24 22 20 20 22 23 21 19 20 19 18 20 24 24 21 19 15 10 11 13 13 15 22 28 29 29 30 25 12 9 12 16 18 21 20 14 9 14 13
1 2 2 1 2 2 2 1 1 1 1 3 4 3 3 2 2 3 3 3 3 3 3 3 4 4 4 4 6 8 9 10 11 11 11 11 12 13 12 13 17 21 23 24 25 27 26 22 19 17 18 19 21 20 20 22 22 21 22 24 24 22 18 12 9 11 12 11 16 22 27 28 27 27 22 8 6 17 21 20 20 18 10 8 14 14
1 3 2 1 3 3 3 2 2 2 3 4 4 3 2 2 3 3 3 3 3 3 3 3 2 3 4 5 6 8 9 10 11 11 11 10 11 12 12 14 18 21 24 26 27 26 24 20 18 17 17 18 21 22 21 21 22 23 24 25 24 21 17 11 9 11 10 11 16 20 25 29 28 30 30 18 12 19 20 19 19 13 5 6 11 14
2 1 1 1 3 4 4 3 2 2 3 2 2 2 3 4 4 2 1 2 2 2 2 2 2 2 3 5 5 6 9 10 9 10 11 11 11 11 13 17 21 23 24 25 25 24 22 20 19 19 18 20 22 22 20 20 23 24 25 27 25 20 14 10 8 9 8 11 16 20 25 28 27 28 28 21 16 15 12 14 15 4 9 8 10 15
2 2 2 2 6 7 5 4 3 2 3 3 3 3 3 4 3 2 1 1 1 1 2 3 4 4 5 6 5 6 8 8 8 9 10 10 10 13 17 19 21 22 23 24 24 24 23 21 20 19 19 19 20 20 19 21 22 23 23 24 22 18 14 10 6 7 9 13 16 20 25 27 26 26 25 22 19 16 11 10 7 8 21 22 19 20
4 5 5 5 7 6 4 5 3 2 3 4 4 4 4 3 3 3 3 2 2 1 1 4 6 6 5 6 6 7 6 6 9 11 10 10 13 16 19 21 20 20 21 22 21 21 21 21 21 19 19 18 19 19 18 19 20 21 20 19 18 15 14 10 3 6 10 14 16 20 25 27 27 28 27 24 22 20 15 11 11 16 22 22 22 22
Wind_Direction
132 231 266 243 254 251 232 210 215 232 236 244 285 327 350 349 321 324 326 312 344 3 305 314 315 318 321 315 313 312 343 74 105 103 94 91 86 82 81 76 68 66 60 56 57 61 65 66 66 65 67 70 72 75 131 225 208 194 242 265 282 307 330 311 264 255 242 235 230 227 224 225 227 228 229 233 238 242 245 246 246 245 247 248 246 242
74 244 258 243 241 249 251 240 228 227 229 259 10 12 9 8 322 317 312 304 336 353 294 321 348 330 314 309 314 319 346 109 124 117 111 101 92 86 80 76 70 70 68 61 57 54 54 54 53 53 53 52 51 54 34 304 161 174 222 228 237 252 257 256 271 286 292 287 265 257 254 245 242 241 241 240 241 244 248 249 248 247 245 245 245 244
323 258 257 258 253 253 261 256 243 155 73 42 36 41 4 344 324 312 316 317 329 338 291 322 356 314 293 314 344 353 45 109 112 107 110 106 100 91 83 82 77 73 64 57 53 48 48 47 45 45 42 42 43 42 27 14 43 63 260 250 246 251 254 267 278 266 290 351 353 316 297 282 267 262 258 254 250 247 247 249 250 249 246 244 244 244
276 259 254 265 268 261 267 309 39 45 44 34 56 67 331 317 340 312 315 320 321 288 248 326 352 310 305 0 26 37 69 84 81 88 93 91 92 87 83 81 74 70 64 59 55 51 52 50 48 45 42 42 39 35 32 28 26 8 334 307 278 270 273 289 303 287 273 305 344 324 295 283 276 274 271 268 261 251 248 251 252 252 250 247 245 245
253 257 263 295 287 244 128 51 54 56 18 346 71 72 300 301 309 276 294 318 328 325 230 29 3 312 354 45 51 50 72 79 73 78 76 73 81 83 80 76 72 71 66 63 59 55 54 52 50 48 45 43 41 43 44 39 30 18 5 347 320 301 295 295 302 310 307 297 290 286 278 269 267 271 268 261 254 248 248 251 255 257 256 252 247 246
269 259 309 346 347 38 70 58 68 99 39 335 317 309 288 306 309 295 313 342 2 339 338 52 25 295 356 58 75 59 71 76 70 79 84 84 82 81 81 77 75 71 66 63 59 55 52 49 47 46 44 44 45 51 51 43 34 26 18 7 352 333 319 309 303 311 323 321 307 292 283 274 273 279 276 265 257 250 242 245 257 260 259 256 250 247
288 294 335 341 7 46 56 50 55 123 87 357 291 301 322 344 327 310 321 347 22 297 306 76 104 267 337 41 52 42 74 78 77 84 87 85 80 80 81 76 71 66 62 59 54 52 50 47 46 43 43 45 50 56 53 45 39 33 30 25 18 8 352 336 322 318 321 323 316 298 285 275 270 279 285 283 280 272 252 245 256 257 254 256 254 250
289 314 332 335 9 50 59 38 274 140 100 323 285 330 3 355 325 311 318 303 223 269 328 43 123 213 331 20 351 356 72 76 77 83 83 84 85 83 78 72 69 65 63 61 57 54 52 51 50 48 47 48 54 57 53 47 43 40 40 36 33 28 19 4 349 339 332 328 323 307 291 278 264 260 267 271 276 283 275 258 252 250 247 249 253 252
277 317 316 315 348 35 108 258 258 131 102 273 295 1 14 344 306 298 303 279 277 53 345 325 54 112 333 329 327 356 74 76 72 77 78 80 80 77 75 72 72 70 67 66 63 59 56 55 54 52 51 50 53 54 50 48 47 46 46 41 38 35 31 22 9 359 351 343 335 323 306 291 281 272 267 265 265 271 276 268 258 252 248 245 247 248
295 289 283 294 16 360 275 276 332 76 102 270 340 13 360 343 315 297 292 282 25 63 294 290 332 109 188 299 328 359 81 85 73 66 64 67 68 67 68 66 67 68 66 65 65 63 60 58 56 55 54 51 51 49 45 43 44 47 49 45 41 37 34 29 22 14 6 359 349 340 329 312 299 289 281 276 270 263 263 266 264 260 253 246 243 243
317 300 297 66 49 298 279 340 42 77 104 350 30 17 352 346 346 348 350 64 69 59 238 271 321 105 161 297 341 360 67 93 96 83 72 70 68 66 65 63 63 64 64 67 67 66 65 64 62 61 58 55 54 52 46 40 37 38 40 42 41 35 30 26 23 20 15 9 359 350 344 332 319 307 297 289 281 270 258 258 263 263 256 248 245 244
337 353 360 327 335 356 11 19 11 26 45 51 55 29 8 345 353 10 357 36 88 244 247 278 346 77 130 264 51 47 50 75 97 100 91 82 77 74 73 69 67 67 68 69 70 71 70 65 62 61 60 57 55 55 51 44 37 34 32 32 33 29 25 20 16 13 11 8 359 351 347 341 334 321 309 297 285 273 259 255 259 258 252 248 248 247
334 341 326 309 357 22 29 17 353 359 24 41 56 54 49 360 358 11 334 356 116 245 245 286 338 43 112 78 82 79 72 78 94 104 104 99 94 87 83 81 78 75 73 69 66 64 61 56 55 59 60 56 54 55 53 47 40 34 29 27 25 22 19 17 13 8 5 3 357 350 343 338 334 324 313 303 292 282 269 257 254 251 247 246 246 244
329 315 343 355 352 9 35 34 349 335 350 5 57 87 86 87 45 345 289 320 305 271 271 303 333 154 158 57 90 104 99 101 104 105 110 109 105 100 93 87 78 70 68 67 66 64 61 56 57 63 65 60 57 57 56 51 44 38 32 26 21 15 11 11 11 7 2 358 356 352 345 338 332 324 315 307 299 292 280 266 257 254 251 249 247 244
15 296 335 20 321 337 22 10 302 299 316 298 160 120 122 150 135 221 232 222 270 283 300 317 339 187 193 171 138 125 119 121 108 105 106 101 105 112 100 84 75 72 72 77 80 82 82 71 66 72 73 65 60 59 57 54 47 41 35 28 21 12 5 3 5 4 0 355 352 351 348 344 338 329 319 310 304 298 289 277 266 261 258 256 254 251
133 252 261 311 267 40 11 323 297 360 333 280 126 81 128 181 154 180 207 194 206 287 310 302 333 14 140 134 143 142 131 120 115 113 98 89 94 102 86 70 67 66 69 78 83 86 95 80 66 75 79 70 64 59 54 50 42 35 32 28 25 15 4 358 357 358 357 353 350 349 347 345 342 336 328 318 310 304 296 286 275 268 265 263 260 258
17 270 287 328 335 59 14 315 300 31 291 289 20 331 246 185 136 137 281 288 97 90 281 262 107 76 101 129 190 169 122 90 86 81 81 76 67 69 63 53 51 49 43 47 58 56 63 55 47 65 81 74 69 64 56 50 39 33 30 25 20 14 7 360 354 352 353 351 348 347 345 343 342 339 334 326 318 311 303 296 287 278 272 269 266 263
172 278 293 341 338 343 345 312 303 267 163 79 343 274 268 17 92 116 326 344 31 83 274 286 185 177 182 198 205 186 143 105 78 70 70 40 42 59 57 42 32 20 11 13 20 18 22 36 40 66 90 83 76 72 63 54 43 38 34 25 16 10 6 2 355 351 350 349 346 344 342 341 340 338 335 330 323 317 310 302 296 289 279 273 271 268
134 296 294 340 339 312 336 354 335 333 70 90 306 287 22 43 337 7 79 315 340 262 270 295 272 207 203 203 191 197 181 153 172 180 135 71 65 75 56 31 8 345 337 346 349 340 344 11 34 80 105 95 84 72 57 46 36 34 32 23 14 5 358 356 355 352 348 346 343 339 337 337 337 336 334 331 326 322 316 308 302 295 285 278 274 270
107 90 282 302 348 319 346 26 346 317 331 24 3 352 33 153 190 261 205 173 197 230 235 282 294 266 232 207 187 191 177 165 186 193 173 172 158 130 114 144 254 272 263 273 282 276 266 269 350 102 115 101 85 65 44 29 20 21 19 11 6 360 354 352 352 351 347 344 340 336 335 335 335 335 332 329 326 322 318 313 307 300 292 285 279 272
41 111 255 297 344 341 335 307 245 279 298 334 353 341 333 324 101 348 273 180 161 195 205 219 268 268 254 207 177 175 174 184 185 169 179 193 184 184 192 202 226 241 236 235 236 238 238 241 237 124 127 112 93 74 48 25 13 13 8 360 358 358 355 350 348 348 344 341 338 334 332 332 332 333 330 327 324 321 318 315 309 304 298 291 283 275
61 154 226 297 328 317 260 253 253 250 248 258 282 284 298 322 21 38 303 302 52 150 192 181 233 266 265 158 147 158 176 197 181 156 181 204 202 215 225 223 232 243 239 235 237 240 238 240 237 177 166 156 136 129 123 103 50 26 8 354 351 355 356 349 344 343 340 339 337 333 329 328 329 330 329 326 323 319 317 315 311 306 300 295 288 279
141 122 232 275 263 256 263 267 271 267 250 231 225 244 334 8 53 93 241 277 326 300 261 162 242 266 267 131 142 164 177 186 181 170 186 214 220 223 235 239 248 264 254 239 241 249 250 251 249 209 180 171 165 166 159 132 88 46 15 352 344 346 347 342 337 336 334 334 336 334 329 326 327 328 328 325 322 318 315 313 313 309 301 295 291 281
107 90 340 282 283 295 288 288 302 319 26 81 345 347 63 55 78 164 210 215 232 258 267 315 267 269 285 132 141 150 147 152 200 189 177 218 247 248 263 272 280 290 279 259 253 259 261 258 250 219 190 183 184 178 166 146 113 27 360 348 338 333 331 332 332 330 329 330 333 333 329 325 324 326 326 324 321 317 314 312 313 312 305 296 292 282
260 226 36 328 328 335 331 335 344 353 26 59 280 293 39 13 340 278 270 52 280 230 202 200 242 252 276 315 113 85 56 153 209 197 169 210 264 269 273 280 281 279 275 264 262 271 274 267 267 271 257 236 210 181 175 181 196 270 338 337 327 322 322 325 328 327 324 325 329 331 328 324 322 323 323 322 319 316 313 310 311 312 307 298 293 284
178 182 121 97 290 293 304 304 287 301 329 311 282 303 333 333 318 319 350 360 277 253 202 190 229 255 268 253 167 219 242 197 229 244 236 253 268 268 269 270 263 256 253 257 271 293 299 297 307 312 301 287 277 203 187 198 211 240 295 314 309 308 311 314 319 319 317 318 322 325 325 322 320 320 320 319 317 315 311 308 308 310 307 301 296 286
91 159 174 174 197 219 234 245 244 256 301 291 299 307 303 289 251 95 341 236 234 273 267 210 208 250 264 246 211 211 214 213 238 258 272 281 281 279 281 282 283 287 288 293 312 326 324 319 314 309 304 298 298 290 247 243 251 249 247 262 279 289 294 299 307 311 309 310 314 318 320 319 317 317 317 316 315 313 309 306 306 307 307 302 297 288
92 233 228 201 213 227 231 244 258 269 261 252 269 291 295 296 296 251 248 241 184 278 283 237 188 219 255 252 220 220 239 259 265 267 274 280 278 274 279 294 311 319 318 317 327 333 332 329 325 328 328 318 302 291 295 299 295 283 263 249 253 272 281 287 299 305 304 304 306 310 315 316 315 314 314 314 313 311 308 306 305 305 306 303 298 289
119 232 234 210 228 237 237 251 257 246 244 238 245 265 274 279 280 268 261 256 211 226 267 265 229 229 246 242 222 229 247 264 266 262 266 277 283 288 299 310 313 307 306 315 325 335 340 338 329 324 327 318 289 284 297 302 302 296 282 262 253 264 277 284 293 299 299 297 298 304 311 314 313 313 313 312 312 311 308 305 304 304 304 303 298 290
127 231 225 211 242 249 242 256 263 259 268 265 258 263 266 266 262 256 260 262 247 242 256 268 274 266 239 209 230 251 253 259 272 280 295 309 307 308 313 312 309 306 314 329 335 337 336 325 304 294 299 295 281 283 291 295 296 295 286 272 263 267 277 281 284 291 294 292 292 300 308 312 312 312 312 311 311 310 308 305 302 302 301 300 299 292
168 244 225 183 263 268 241 254 266 265 271 272 266 262 261 266 265 257 257 256 251 255 256 260 275 280 255 220 248 274 274 294 319 319 328 330 326 331 332 324 320 318 322 331 329 323 319 314 309 304 302 298 290 286 286 288 290 291 286 276 269 273 279 278 277 284 289 287 289 298 307 310 311 311 311 310 310 309 308 304 300 298 298 297 295 292
176 248 312 88 287 262 209 238 269 284 298 288 276 264 257 257 256 250 244 229 219 227 238 259 270 259 253 263 272 278 304 349 351 347 350 340 332 333 325 314 313 309 308 315 312 307 305 304 302 300 299 300 300 298 297 295 294 291 287 279 274 277 279 274 273 280 283 282 287 297 305 309 311 311 310 310 310 309 307 304 298 295 297 294 289 290
162 186 117 130 263 260 190 213 283 342 328 287 261 249 248 248 247 246 242 226 206 174 171 231 246 231 253 318 330 324 339 352 346 343 340 325 318 312 298 297 305 298 295 303 300 299 299 292 292 296 298 301 306 309 312 311 305 298 295 290 285 282 278 273 273 276 277 279 286 296 305 311 311 310 309 309 309 308 306 302 295 293 297 294 287 286
167 178 200 173 208 250 198 60 16 327 282 267 244 212 221 228 229 233 232 216 209 183 171 214 227 239 282 314 318 313 315 313 290 265 271 281 286 292 298 304 305 297 297 303 302 303 303 300 305 308 307 308 309 310 312 311 306 301 299 297 293 286 277 271 272 273 273 278 287 297 307 310 309 309 308 309 308 306 304 299 292 294 299 295 287 284
190 194 212 182 202 240 213 57 348 274 253 260 292 217 196 179 163 189 235 232 204 202 353 332 298 293 296 285 277 288 292 285 263 243 258 268 267 287 310 312 306 304 304 305 306 307 306 306 308 308 307 307 306 305 306 304 302 298 294 292 292 285 276 271 271 271 272 279 287 299 307 308 307 308 308 308 307 304 302 296 291 297 300 294 287 283
211 197 191 188 200 235 207 152 232 262 277 292 301 302 131 103 100 123 295 286 224 159 62 337 310 305 304 293 287 291 296 299 291 247 248 261 267 293 304 303 303 304 303 304 306 305 302 301 300 300 302 304 303 303 303 302 301 298 291 287 285 280 275 271 269 268 272 278 288 298 304 304 305 307 307 307 305 302 299 295 292 298 298 290 285 281
206 182 176 219 215 197 217 224 246 299 308 294 280 254 172 163 154 153 240 277 268 222 120 265 287 293 295 295 299 307 315 317 317 288 247 246 290 312 304 303 303 302 304 305 305 303 300 299 299 300 301 302 301 301 300 301 301 298 292 287 282 278 274 269 266 267 271 278 288 297 301 303 305 307 306 304 302 300 297 294 293 298 295 287 283 280
200 188 181 208 218 177 208 251 275 292 282 259 259 285 232 160 156 142 122 290 279 279 246 218 263 290 302 313 312 322 340 328 314 300 252 255 306 314 306 301 300 300 300 301 303 304 301 299 299 300 300 299 297 298 301 301 299 297 294 288 283 280 276 270 268 269 271 279 291 297 301 305 307 306 303 301 300 297 294 292 293 296 293 284 278 284
201 193 165 190 222 175 183 234 247 247 249 246 264 284 178 150 133 105 26 294 271 295 318 335 332 318 315 315 315 340 7 328 304 303 308 311 314 311 303 300 302 302 301 302 305 303 300 299 300 300 300 298 297 301 304 301 298 297 293 288 285 284 280 276 274 273 274 283 292 298 304 309 309 306 302 300 297 293 290 291 293 294 291 282 273 282
188 166 153 199 226 196 182 231 245 235 246 253 245 207 182 129 83 62 318 270 274 325 343 16 8 333 320 326 334 353 358 309 297 309 321 321 316 311 310 311 311 311 310 310 308 303 299 299 299 300 301 301 301 304 305 302 299 294 290 288 288 286 283 283 281 277 279 286 294 304 311 312 310 306 301 298 295 292 290 290 293 292 286 278 268 274
183 159 181 213 228 216 209 237 257 254 256 260 230 195 177 45 40 333 240 239 265 331 350 35 9 331 330 346 342 323 298 285 292 305 314 319 318 316 318 318 315 315 315 312 308 305 303 301 302 303 303 304 305 306 306 304 298 291 289 290 288 288 290 289 283 278 282 291 302 313 317 315 312 306 302 298 294 291 290 289 291 290 284 277 267 268
195 156 218 221 226 219 210 236 266 273 247 174 190 197 132 72 249 232 230 237 289 11 17 11 352 335 335 333 317 298 296 297 299 304 312 319 319 318 321 322 320 318 316 312 309 307 307 308 309 308 306 306 307 305 304 303 297 292 294 294 293 299 301 294 283 279 289 302 313 320 320 317 315 309 304 300 293 290 290 287 288 291 288 283 270 261
173 148 242 221 201 176 208 235 255 261 228 127 135 344 43 104 200 221 256 323 352 17 7 347 335 329 325 318 310 305 305 306 309 312 316 319 319 318 319 320 318 316 315 313 310 308 309 309 307 305 304 306 307 306 304 302 298 298 300 299 304 312 311 298 285 287 302 313 318 323 324 321 318 313 308 302 294 290 287 285 291 297 295 297 288 247
179 169 202 213 180 156 194 226 230 225 301 55 92 124 128 149 176 172 86 356 339 342 342 337 330 324 321 320 317 313 309 311 316 319 321 322 320 318 316 316 315 313 312 311 309 309 310 307 302 302 303 306 309 310 309 305 303 304 304 307 316 322 315 298 288 297 314 318 321 329 330 325 319 316 314 306 296 294 289 289 299 297 284 294 321 38
205 177 182 202 218 194 197 227 234 182 79 51 82 138 148 128 105 91 78 25 317 306 324 332 321 316 314 314 314 316 318 320 321 323 324 322 320 317 314 312 311 309 309 310 310 310 308 304 300 300 302 307 311 313 315 317 315 309 309 318 325 325 311 296 293 311 320 319 329 338 335 328 322 322 322 311 293 304 313 309 308 297 282 306 356 39
297 53 124 163 254 266 237 242 261 254 102 100 115 136 128 105 79 83 89 33 279 286 298 296 292 298 305 313 321 327 327 325 326 326 325 320 317 315 313 311 309 308 309 311 310 309 308 303 299 298 302 307 311 314 318 324 322 314 316 324 328 322 306 292 301 322 319 321 341 345 339 331 325 326 328 313 266 293 315 319 314 300 292 340 19 33
127 88 94 165 225 260 254 180 108 53 165 135 134 143 130 119 144 150 160 216 241 254 263 264 279 290 297 322 336 334 330 329 329 327 326 323 318 314 312 311 310 310 311 310 308 309 307 300 295 299 303 305 309 313 317 323 326 326 327 328 327 318 301 289 307 322 318 331 351 348 339 330 326 333 350 9 275 300 319 327 320 305 304 26 50 49
105 83 81 223 217 214 234 217 153 180 191 153 142 163 152 148 187 190 184 197 207 225 241 249 280 299 319 342 345 336 332 333 332 328 326 322 317 314 314 312 310 311 311 309 308 309 306 298 295 300 303 305 310 313 315 320 330 337 338 335 331 317 294 283 308 321 325 348 357 349 336 330 333 349 4 10 326 318 335 341 326 310 312 25 49 63
99 60 63 290 266 260 259 242 209 229 225 186 191 222 183 173 198 214 159 160 187 236 262 272 292 311 335 344 341 335 334 334 332 330 325 319 315 312 311 311 311 312 312 310 310 312 310 304 302 302 304 311 316 317 317 322 332 339 337 334 334 321 290 277 307 325 346 5 358 343 333 330 336 350 1 2 342 333 353 350 328 310 128 95 59 67
144 207 176 224 260 258 237 198 189 238 254 250 271 267 219 187 180 157 121 158 252 286 304 324 334 343 354 353 346 341 337 332 330 328 320 313 311 309 310 313 315 314 314 314 316 319 319 318 317 314 313 322 328 327 324 329 338 344 339 334 335 323 289 274 307 342 4 11 357 338 331 332 338 347 357 7 358 342 350 8 7 110 121 112 94 80
187 204 196 217 246 242 194 176 198 239 231 233 252 252 231 206 165 150 163 199 235 241 291 331 336 342 350 353 352 348 340 330 328 326 316 308 311 313 317 321 321 319 319 320 321 323 326 331 335 330 326 334 342 342 342 347 356 359 351 343 343 329 293 272 297 10 17 14 355 336 333 338 345 350 354 360 0 357 5 32 70 98 108 112 108 96
Height
771 783 788 788 784 778 776 775 775 773 774 776 776 777 778 780 776 767 761 750 745 755 755 752 752 746 741 734 726 722 723 733 739 741 746 747 749 750 752 754 755 757 758 757 757 756 756 755 754 754 754 754 754 755 755 756 758 763 766 765 763 763 763 764 763 762 764 765 765 763 761 761 763 765 767 768 769 770 771 773 775 776 777 778 778 779
774 789 788 778 773 769 769 770 769 770 772 773 775 778 778 780 776 764 761 753 746 755 757 750 750 746 739 733 728 724 727 736 738 740 748 749 752 755 756 759 760 760 761 759 759 759 758 757 757 757 757 757 757 757 757 757 759 762 762 760 758 757 758 761 761 761 762 764 766 768 769 767 765 766 767 768 768 769 770 772 774 775 776 777 777 777
786 790 779 766 764 765 767 767 766 767 769 772 773 777 781 778 774 766 759 753 749 756 758 751 753 750 740 736 735 730 731 738 738 739 747 751 755 759 760 763 763 763 764 763 763 762 761 761 761 761 760 760 760 759 759 759 760 760 759 759 758 756 756 758 759 759 760 762 764 769 774 774 770 768 767 767 768 769 769 770 772 773 774 776 776 776
794 784 769 763 762 765 769 766 765 766 769 775 775 779 784 777 779 779 766 756 752 754 756 753 753 750 744 743 744 741 738 742 745 746 750 753 756 760 762 764 765 766 767 767 767 766 766 766 765 765 764 764 763 762 762 763 763 762 761 761 760 758 758 759 760 760 760 761 761 764 768 770 771 770 768 767 767 768 768 768 770 772 773 774 774 774
787 773 762 762 762 764 769 768 768 770 773 777 774 777 782 776 778 779 769 761 755 752 750 753 762 756 750 757 757 751 747 748 753 756 759 760 761 763 765 766 768 769 770 770 771 770 770 769 769 769 768 766 765 765 766 766 766 766 764 764 763 762 761 760 760 761 761 761 761 761 761 763 766 768 768 766 765 765 766 767 769 771 773 773 772 772
777 765 760 763 764 762 766 770 770 772 776 778 772 771 775 774 774 772 768 767 768 767 754 756 782 775 756 764 768 760 757 758 762 765 767 768 767 768 770 771 772 772 774 774 774 774 773 773 772 771 770 769 769 770 771 771 771 770 768 767 766 765 764 762 761 761 762 761 761 761 761 762 764 766 767 767 766 765 764 765 767 769 772 772 771 770
770 761 760 765 767 765 768 771 769 768 777 781 772 766 768 769 772 771 770 774 779 779 760 757 787 787 768 772 773 767 767 764 766 769 770 771 771 772 774 775 776 777 778 778 777 777 775 775 775 774 774 773 774 775 775 775 775 774 773 771 769 768 766 765 763 762 761 761 760 760 761 762 763 764 765 767 768 767 764 762 760 762 766 769 770 769
770 765 765 766 767 770 773 773 768 765 775 781 769 763 767 769 772 771 770 775 775 772 766 761 774 786 787 785 776 773 775 772 773 774 774 774 775 777 778 779 780 781 782 781 780 780 778 779 778 777 778 777 777 777 777 777 778 777 776 774 772 770 768 767 765 764 763 762 760 759 760 761 761 761 761 762 764 766 765 760 756 756 759 763 766 767
770 771 771 769 772 775 773 770 765 763 772 775 764 763 768 768 770 769 768 772 769 774 783 774 770 788 800 790 778 778 781 783 782 780 780 779 779 781 782 783 784 784 784 783 782 782 781 781 780 779 779 779 778 778 778 779 779 779 777 776 774 772 771 769 767 765 764 763 762 760 760 760 761 760 759 758 759 761 762 759 756 755 756 758 760 760
771 770 766 768 774 775 770 766 763 765 771 768 761 763 766 766 767 767 769 770 771 786 796 783 774 790 804 796 787 787 787 789 790 787 786 785 783 784 784 785 785 784 784 783 783 783 782 781 781 781 781 780 779 779 779 780 780 780 779 777 775 773 772 771 769 767 765 764 763 762 761 760 760 760 758 757 757 758 758 756 753 752 754 755 756 755
771 763 760 765 772 769 765 765 763 765 767 762 765 769 768 769 767 768 773 774 783 799 798 783 773 782 801 803 796 795 792 790 792 793 792 790 789 789 787 787 786 785 785 784 784 784 783 783 783 782 782 781 781 781 780 780 780 780 780 779 778 776 774 773 771 770 767 766 764 763 762 760 760 759 757 756 757 757 756 754 751 750 749 750 752 753
773 769 768 766 766 765 764 766 764 764 764 765 773 778 778 780 777 777 780 781 796 806 794 780 771 779 800 805 800 800 795 791 794 795 795 794 793 792 790 789 788 787 786 785 785 785 784 784 783 783 782 782 782 781 781 782 781 780 780 779 778 777 776 774 773 772 769 768 767 765 764 762 760 759 757 756 756 756 756 754 751 749 747 746 747 749
781 778 776 767 763 765 770 774 772 767 767 771 778 784 794 803 802 802 801 799 804 800 786 778 772 783 801 802 800 802 798 796 796 795 795 794 793 793 791 790 788 787 786 784 784 784 784 783 783 783 783 783 783 783 783 783 782 781 780 779 778 778 777 776 774 772 770 769 767 766 765 763 761 759 758 757 755 755 755 754 751 748 746 744 743 743
792 784 779 774 770 769 775 784 788 782 778 780 782 788 803 815 823 825 819 816 812 795 781 775 775 790 803 801 800 800 798 797 795 793 794 792 791 791 789 788 787 785 784 784 784 784 784 784 784 784 784 784 784 784 784 783 782 781 780 779 779 778 777 776 774 772 770 768 766 766 765 764 762 759 757 756 754 753 752 751 750 746 744 742 739 737
809 800 787 786 783 777 778 784 787 784 781 780 778 784 798 805 815 824 819 816 813 801 788 778 781 796 803 801 799 796 796 796 793 793 792 790 789 788 787 786 786 785 784 784 784 784 785 784 784 784 784 784 784 783 783 782 782 781 780 780 779 778 776 775 774 772 770 767 765 764 763 762 761 759 757 755 753 751 750 748 747 744 741 738 735 733
814 807 788 784 782 779 783 780 775 779 784 781 775 783 793 789 793 806 808 806 806 807 800 787 789 799 799 797 796 794 796 795 793 793 790 790 789 786 786 785 784 785 784 784 784 784 784 784 783 783 783 783 782 782 782 781 781 780 780 779 779 778 777 774 772 771 769 767 765 763 762 760 759 757 756 754 752 750 748 746 744 741 738 734 731 730
812 805 787 781 780 777 782 779 772 780 785 783 783 786 782 775 780 796 805 803 804 813 807 791 796 806 803 800 796 794 797 794 793 792 789 789 787 784 785 784 783 783 782 782 783 782 783 782 781 781 781 781 780 780 780 780 780 779 779 779 778 778 777 774 771 769 767 766 763 761 760 758 757 755 753 751 749 747 746 744 741 739 735 732 729 727
809 806 789 785 787 780 777 775 771 773 776 784 791 784 773 773 778 790 804 809 812 819 809 791 794 806 807 803 797 796 798 795 794 792 789 789 787 786 786 784 783 782 781 781 781 781 781 780 779 780 779 779 778 778 778 778 778 778 777 778 777 776 775 774 771 768 765 764 762 760 758 756 755 753 751 749 747 745 743 741 739 736 733 729 727 725
804 809 797 788 792 785 775 777 778 773 771 780 785 776 777 790 794 794 804 812 819 825 816 797 791 794 796 795 794 795 797 796 795 793 790 789 788 787 787 785 784 782 781 781 780 780 780 778 778 778 777 777 776 775 775 775 775 775 775 775 774 774 773 772 770 767 764 762 760 759 757 755 753 751 749 747 745 743 741 739 737 734 730 727 724 722
800 812 808 793 792 788 781 786 794 791 779 776 780 779 780 790 795 796 798 803 814 823 820 809 798 790 785 783 782 786 793 795 794 793 791 790 789 788 786 785 784 781 781 781 781 780 779 778 776 775 775 774 773 773 772 772 772 772 771 771 770 770 770 769 768 766 764 761 758 756 754 752 750 748 747 745 742 740 738 737 735 732 728 724 722 720
800 812 813 799 794 796 795 795 798 800 795 790 793 796 791 788 789 793 795 796 803 812 815 815 810 792 779 777 776 780 789 790 787 789 790 789 788 786 785 785 783 780 780 781 780 779 778 776 774 773 773 772 771 770 769 769 770 769 769 768 767 767 767 766 765 764 762 760 757 754 751 749 748 746 744 742 740 738 735 734 732 729 726 721 719 718
803 811 814 808 805 804 801 793 788 792 796 796 799 800 798 795 795 802 807 801 799 805 808 814 815 794 776 778 780 782 786 784 782 785 786 786 786 785 784 783 781 779 779 779 778 776 775 773 772 771 770 770 768 767 766 766 767 767 766 766 765 764 763 763 762 761 760 758 756 753 750 748 746 744 742 739 737 735 732 730 729 727 724 719 716 715
802 809 815 815 810 806 798 787 784 786 786 789 794 794 795 797 800 810 817 810 806 807 803 810 815 795 777 779 781 781 783 781 782 784 784 786 785 783 782 780 778 777 777 776 775 774 773 771 770 769 768 767 765 764 764 765 765 765 764 764 763 761 760 759 758 757 756 755 753 752 749 746 744 742 740 737 734 732 729 727 725 723 721 717 714 712
801 810 816 815 809 805 796 785 783 783 783 791 795 792 795 800 800 805 809 808 810 809 803 811 814 795 780 780 781 782 783 783 785 785 784 785 783 780 779 777 776 775 774 774 773 771 771 769 768 767 765 764 762 762 763 763 763 763 762 761 760 758 757 756 755 754 753 751 750 749 747 744 741 739 737 735 732 729 726 723 721 719 717 714 711 708
803 811 816 818 817 813 804 796 792 788 790 799 800 795 797 799 798 801 802 806 812 807 802 809 809 793 783 782 783 785 786 785 786 784 782 782 780 778 777 776 775 774 773 772 771 771 770 768 766 765 763 762 761 762 762 762 761 760 759 758 756 755 754 753 752 751 750 748 747 745 744 741 739 737 734 732 729 726 723 720 718 715 713 710 707 704
802 809 812 819 828 828 820 813 807 802 801 802 800 798 799 798 799 801 804 811 813 806 802 804 799 789 785 785 786 789 790 788 786 784 782 780 779 777 776 775 774 773 772 771 770 769 768 766 765 763 761 760 760 761 761 760 760 758 757 756 754 753 752 750 750 748 747 746 744 742 741 738 736 734 732 729 726 723 720 717 714 711 709 706 703 700
803 809 808 812 818 820 817 810 804 806 809 807 803 801 799 799 799 801 807 811 808 804 803 799 792 789 786 785 788 791 791 789 786 784 782 780 778 776 774 772 771 770 770 769 768 767 766 765 765 763 762 760 759 760 760 759 759 757 756 754 752 751 749 747 746 745 743 742 741 739 738 735 733 731 729 726 723 720 717 714 711 708 704 701 699 695
806 812 807 808 809 806 806 804 802 806 809 808 807 803 798 798 799 803 808 805 802 807 802 789 787 791 785 782 786 789 787 786 784 782 780 778 776 775 773 772 771 769 769 768 767 766 766 765 764 763 762 761 761 761 759 758 756 754 753 751 749 748 746 744 743 741 740 738 737 736 734 732 730 728 726 723 720 717 714 710 708 704 700 697 694 691
806 810 806 807 808 804 804 804 803 805 805 804 805 803 800 800 801 802 801 795 798 804 796 782 783 788 784 781 786 786 783 783 782 779 778 777 775 774 774 773 772 771 769 768 767 767 765 764 763 762 761 761 760 759 757 755 753 751 750 748 746 745 743 741 740 738 736 735 733 732 730 728 726 724 722 720 716 713 710 707 704 700 696 693 690 687
803 806 804 805 806 804 804 802 801 802 802 801 801 800 797 797 797 797 794 790 792 793 786 781 784 785 782 782 782 781 781 781 780 779 778 777 776 775 774 773 772 771 769 768 767 765 764 762 761 760 759 758 758 756 754 753 750 748 746 744 743 742 740 738 736 734 733 731 729 729 727 725 723 720 718 716 713 710 707 704 701 697 692 690 687 683
802 805 803 803 807 806 802 800 799 800 801 801 801 798 795 794 793 792 790 788 789 787 783 784 786 783 781 780 780 780 781 781 781 780 779 777 775 774 773 772 770 769 768 768 767 765 763 761 759 758 756 755 754 753 751 749 747 744 742 740 739 738 736 735 733 731 729 727 726 725 723 721 719 716 714 711 709 706 703 700 697 693 690 686 683 680
803 806 804 805 811 809 801 800 800 799 801 803 800 795 792 791 790 786 784 783 782 781 782 784 785 782 779 780 782 781 781 781 780 778 776 775 773 773 772 771 769 769 769 768 767 765 763 760 758 756 754 752 751 749 748 746 744 741 739 737 735 733 732 730 728 727 725 723 722 721 719 717 715 713 710 707 705 702 699 696 693 689 686 682 680 677
801 804 805 808 812 809 803 801 801 804 809 803 790 783 783 783 783 781 779 777 776 777 780 781 779 778 779 781 781 779 779 779 777 776 775 774 772 772 771 770 770 769 768 768 766 764 762 759 756 754 751 750 748 746 745 743 742 739 736 734 732 730 728 726 724 723 721 720 719 717 716 714 711 709 706 703 701 698 695 693 689 684 681 678 676 674
798 801 805 808 810 809 805 802 805 812 810 792 775 772 773 774 775 777 776 775 775 777 777 777 777 779 781 781 780 778 778 777 776 776 776 774 772 771 770 770 771 769 768 766 764 762 759 756 753 751 749 748 746 744 742 741 739 736 734 732 729 726 724 722 720 719 717 716 716 714 712 710 708 706 703 700 698 695 692 689 685 680 677 673 671 669
798 801 804 805 807 809 807 808 814 811 795 779 772 771 771 770 772 774 774 775 777 778 777 777 778 779 779 779 778 777 775 774 775 776 774 772 771 770 771 771 770 768 766 764 761 758 756 753 750 748 747 745 744 742 740 737 735 733 730 727 726 723 720 718 716 715 714 713 712 711 709 707 705 703 700 697 695 692 688 685 681 676 673 670 667 665
795 800 802 803 805 807 807 811 811 797 780 775 775 773 774 775 775 776 777 776 777 777 777 778 778 777 777 777 775 775 774 773 774 773 771 769 770 771 771 770 768 766 763 760 758 755 752 750 748 747 745 743 741 739 737 734 731 728 724 722 721 719 716 714 713 712 711 710 709 707 705 704 702 700 697 695 692 688 685 681 677 673 670 667 663 660
788 796 800 802 803 803 805 806 800 790 784 779 773 772 774 774 773 776 778 777 777 777 778 778 778 777 777 776 775 775 775 773 771 770 769 769 769 770 769 767 765 763 760 757 754 751 749 748 746 744 742 740 738 736 734 730 727 724 721 718 716 714 712 711 710 709 708 707 705 704 702 701 699 697 694 692 689 685 681 677 673 670 667 663 659 656
782 787 793 799 801 799 804 806 802 799 794 782 773 772 772 771 771 774 778 780 779 778 777 777 778 778 778 778 777 777 777 775 771 768 768 769 769 768 767 765 763 761 758 755 752 748 746 745 743 742 741 738 735 732 730 727 724 721 718 715 713 711 709 708 707 706 705 703 702 700 699 698 697 695 692 689 686 682 677 673 670 667 665 661 657 652
780 783 787 795 799 799 803 806 803 798 789 778 774 773 772 772 771 773 780 783 780 778 778 778 779 780 780 780 779 778 780 780 773 767 767 769 768 767 766 763 760 759 757 754 751 747 744 742 741 739 737 735 731 728 726 723 721 718 715 713 710 709 707 706 705 703 702 700 699 698 697 696 694 692 689 686 681 677 672 669 667 664 662 658 654 649
783 787 791 794 796 797 799 800 795 789 781 776 774 773 773 773 772 779 789 788 781 781 782 781 782 782 781 782 781 780 782 783 776 768 766 767 766 765 764 762 758 756 753 750 748 745 742 740 738 735 733 730 727 724 722 720 718 715 713 710 709 707 705 703 701 700 699 698 697 696 695 694 692 689 685 682 676 671 667 665 664 661 658 655 652 647
784 788 791 792 792 795 798 796 790 783 777 774 773 772 772 774 777 784 790 787 783 785 784 782 783 783 781 782 782 781 781 780 776 770 767 766 764 761 760 759 756 754 751 748 745 742 739 737 734 732 729 726 724 721 719 717 715 713 710 708 707 705 702 700 698 697 697 696 695 694 693 691 689 685 681 677 671 666 663 663 662 659 656 653 652 647
786 788 790 790 791 794 795 794 792 785 775 772 773 771 771 777 783 786 786 784 784 784 783 782 782 781 780 781 781 780 778 776 775 772 768 766 763 759 757 755 753 751 749 746 742 739 736 733 730 728 726 724 722 719 717 715 712 710 708 707 705 702 699 697 696 696 696 695 694 692 691 688 685 681 676 671 667 663 662 661 660 657 655 652 649 647
786 791 793 791 790 793 795 795 796 789 776 770 772 773 774 780 785 785 783 783 782 781 782 782 781 780 780 780 779 778 777 774 773 771 767 765 762 759 757 754 751 749 746 743 740 737 735 732 728 725 723 721 719 717 715 713 710 708 707 705 702 699 697 695 695 695 695 694 692 690 688 685 681 676 671 666 663 662 661 660 658 656 654 651 647 644
781 786 790 787 785 790 794 791 787 782 775 771 774 777 779 782 782 782 782 782 781 781 781 781 780 780 779 779 778 777 775 773 771 768 765 764 762 759 756 753 751 748 744 741 738 735 733 730 726 724 722 719 717 715 712 711 709 707 706 703 700 697 695 694 694 694 694 693 691 689 686 682 678 673 668 663 661 661 660 659 658 655 652 649 646 643
778 777 780 781 780 782 784 781 777 775 775 775 776 778 780 780 779 779 781 781 781 781 780 780 781 780 779 778 777 776 774 772 769 767 765 763 760 758 755 753 751 748 744 740 737 733 731 728 724 722 720 717 715 713 711 709 708 706 704 701 699 696 694 693 694 694 693 692 690 687 684 680 675 669 664 660 659 660 660 659 657 655 652 649 646 643
777 775 776 778 778 778 777 776 774 775 776 777 778 778 778 778 777 778 780 781 781 780 779 780 780 779 778 778 776 774 772 770 767 765 764 761 759 757 754 752 749 746 743 739 735 732 729 726 723 721 718 715 713 711 709 707 706 704 703 700 698 695 693 693 693 693 692 691 689 687 684 679 674 668 662 658 658 659 660 658 655 653 652 650 647 644
778 778 778 778 779 780 779 776 775 776 777 777 778 778 776 776 777 777 778 779 779 778 778 778 778 777 777 775 773 772 770 767 765 764 762 760 758 755 753 751 747 743 740 737 733 730 727 724 722 719 716 714 711 709 707 706 704 703 701 699 696 694 692 693 693 692 692 690 689 688 684 678 674 668 661 659 659 658 658 656 654 652 651 651 650 647
779 781 781 779 779 779 777 775 774 776 776 775 776 776 775 775 776 775 776 777 776 776 777 776 776 775 773 771 770 769 768 766 765 763 761 760 758 754 751 749 745 741 738 734 731 728 725 723 720 717 715 712 710 708 706 704 703 702 700 698 695 692 691 692 692 692 691 690 689 688 685 679 673 667 662 661 661 660 658 657 656 654 652 652 653 652
781 784 782 781 782 779 777 775 774 774 774 774 774 773 773 773 773 773 774 774 774 774 774 773 772 771 770 769 768 768 767 766 765 763 762 760 757 754 751 747 743 740 736 733 730 727 724 721 719 716 714 711 709 707 706 704 702 701 699 697 694 691 691 692 691 691 691 689 689 688 685 679 675 671 668 666 664 663 663 663 661 658 657 657 657 656
783 785 782 783 783 778 774 773 773 773 774 773 772 771 770 770 770 771 772 773 772 772 771 770 768 767 767 767 767 767 767 766 764 763 762 759 757 754 750 746 742 739 735 732 729 726 723 721 718 715 713 711 709 707 706 704 702 701 699 695 692 691 690 691 691 691 690 689 689 688 684 679 675 673 671 670 667 666 667 667 664 661 661 661 662 662
779 778 777 778 777 772 769 769 770 772 773 771 769 769 769 768 769 770 770 771 770 770 769 767 766 765 766 767 767 766 766 765 764 763 761 758 756 753 749 745 742 738 735 732 729 726 724 721 718 716 713 711 708 707 706 704 702 700 697 694 692 690 690 691 692 691 690 690 690 688 684 680 677 674 673 673 672 669 669 669 668 666 665 665 665 666